GFSSW_500_spd_093.txt.gz
Wind_Speed
25 24 23 23 24 22 22 23 24 23 24 25 26 27 29 31 32 34 39 47 43 40 38 42 41 46 61 65 63 59 62 64 59 51 49 37 39 35 38 40 28 34 37 41 41
27 28 27 24 22 22 21 22 21 21 22 24 25 26 28 29 29 32 37 33 26 26 25 30 33 40 55 56 57 57 62 62 54 51 51 50 39 36 38 42 41 41 34 37 46
26 26 27 25 21 20 20 21 21 23 21 23 24 24 25 25 25 29 26 19 16 20 23 25 31 38 43 48 48 49 53 47 49 50 50 53 49 33 37 35 36 45 51 46 50
26 25 26 25 23 21 19 18 18 19 21 22 22 22 22 21 18 21 18 15 16 15 13 19 27 33 41 40 37 39 39 38 39 43 42 47 52 47 35 25 30 31 31 40 46
26 26 27 28 24 22 20 19 17 18 20 21 21 19 18 18 17 13 13 15 12 6 13 21 25 30 34 36 33 33 33 34 32 36 39 38 47 49 48 43 44 44 43 43 40
23 22 24 26 27 23 23 19 18 17 19 22 19 17 16 15 13 10 14 12 5 7 17 19 20 25 30 30 32 32 33 33 33 30 36 41 41 36 32 35 34 33 37 38 37
25 24 22 23 24 24 22 19 18 17 17 18 18 14 12 13 9 7 13 10 5 13 19 20 19 25 23 26 25 26 27 29 33 37 38 39 32 32 28 30 33 37 37 38 37
28 27 26 24 21 20 17 17 17 17 17 15 19 11 10 10 8 7 10 9 7 14 22 26 30 31 32 29 28 25 31 30 26 27 23 26 27 26 28 29 32 35 33 29 32
29 28 28 26 22 15 14 16 17 17 16 14 17 16 10 9 8 10 10 12 12 15 17 23 25 26 27 30 28 24 20 14 15 18 21 25 24 22 26 29 32 32 31 29 29
28 28 27 27 25 18 15 17 18 16 14 13 13 18 13 10 10 10 14 14 16 16 16 18 20 21 22 23 19 13 10 5 2 15 15 23 26 19 27 30 30 31 31 29 30
28 28 28 27 24 22 17 15 16 15 12 10 11 13 15 10 13 12 14 18 20 21 20 22 22 20 20 19 14 22 13 9 4 10 15 20 29 25 31 32 32 31 30 31 31
30 30 31 26 25 21 19 15 15 15 12 11 11 11 22 14 11 14 14 15 18 19 22 24 22 19 25 24 21 22 24 26 26 24 27 28 32 29 23 21 28 32 33 32 34
31 32 31 29 25 21 17 16 15 13 12 11 9 8 5 20 13 14 15 18 17 19 19 18 20 19 16 20 20 31 34 36 37 36 33 36 41 29 26 31 30 29 28 31 35
32 30 30 29 23 21 17 13 13 13 11 9 4 6 6 7 22 16 15 16 19 21 20 18 19 20 21 25 33 33 31 31 40 41 45 42 39 30 21 22 23 26 34 39 41
34 30 26 30 24 20 17 15 10 11 9 6 5 5 6 7 7 24 19 16 17 21 27 26 27 22 22 19 25 24 24 27 34 43 42 38 35 20 20 18 24 32 38 41 41
31 31 31 29 24 19 18 15 9 5 7 9 7 10 6 7 9 6 11 29 22 23 23 23 30 32 26 22 20 29 30 29 28 24 30 18 26 19 17 23 30 35 37 40 41
30 31 29 29 21 17 15 14 8 4 9 10 10 5 5 7 7 8 6 9 17 35 21 19 25 26 28 27 28 28 27 26 30 30 28 22 27 19 22 27 31 35 39 41 44
27 29 29 25 21 16 15 12 8 8 9 12 16 14 12 9 8 7 4 7 9 10 26 37 31 26 31 29 28 28 28 31 30 25 28 23 25 23 31 37 41 41 42 45 46
27 26 27 25 20 16 14 12 14 16 11 8 11 14 6 10 12 10 15 17 15 12 15 20 29 33 31 34 38 37 33 30 35 32 31 25 29 27 33 40 40 42 45 47 50
28 25 23 21 19 17 14 14 16 14 12 13 13 15 13 17 19 23 21 19 21 24 21 21 23 29 28 32 37 33 33 36 33 35 35 32 28 41 41 46 50 49 46 45 43
29 26 23 20 17 16 14 14 17 12 15 14 14 14 19 18 22 22 26 21 21 26 28 25 25 21 28 33 28 31 36 39 36 36 32 31 29 28 33 36 41 42 45 46 47
31 29 22 22 16 15 15 15 13 14 14 16 16 16 19 21 21 22 25 22 28 26 25 25 24 21 22 25 29 32 34 34 36 30 36 36 32 35 37 43 42 46 48 48 49
32 30 27 25 21 18 13 17 14 14 15 17 19 20 18 18 21 21 26 30 24 23 26 24 26 25 22 25 26 26 28 31 33 30 30 34 28 23 30 40 42 46 48 46 36
34 33 31 27 26 23 19 18 17 17 17 15 19 21 21 21 22 20 22 26 25 21 22 25 27 25 24 21 20 20 23 25 28 31 26 30 30 28 28 30 40 48 45 40 26
34 34 31 31 27 24 24 24 21 25 17 16 20 19 19 23 23 22 23 24 21 26 24 26 26 26 26 23 30 25 28 27 26 26 29 24 25 20 22 34 41 44 39 26 26
33 31 30 29 36 33 30 26 28 26 23 25 20 23 20 23 24 23 23 24 21 25 27 31 23 24 25 24 28 32 35 34 29 31 35 35 32 26 35 42 37 40 31 27 30
29 32 31 28 29 31 29 28 32 27 27 27 26 22 23 24 24 24 22 23 22 24 28 27 25 24 22 25 28 31 25 31 31 33 36 39 38 42 40 33 29 32 33 30 31

GFSSW_500_spd_096.txt.gz
Wind_Speed
23 23 25 23 23 23 20 20 20 20 23 25 27 28 28 28 28 29 34 35 39 41 45 51 55 57 60 58 65 68 70 70 64 58 52 58 52 58 45 39 33 34 34 36 34
27 22 22 22 21 21 20 20 20 19 20 21 23 25 26 27 28 31 33 34 39 43 46 46 46 48 52 47 59 72 77 73 65 58 51 57 58 43 45 42 30 32 32 33 32
29 23 20 22 21 21 19 19 18 19 18 21 22 23 24 25 27 31 31 32 37 37 35 32 34 36 40 40 53 66 76 67 60 57 54 56 61 49 52 47 47 41 34 37 38
31 27 23 20 20 18 20 17 19 18 18 19 20 21 23 24 24 27 28 29 27 28 29 28 26 26 31 36 47 56 63 61 54 55 56 58 57 50 47 51 51 42 37 38 43
29 27 25 25 21 18 18 18 18 19 18 17 20 22 23 21 22 23 23 22 22 26 22 19 14 13 16 21 35 42 44 48 47 52 53 54 49 46 54 45 49 47 46 40 37
28 28 27 26 26 19 16 19 18 17 16 16 16 21 21 17 21 18 19 16 20 19 14 11 12 13 17 22 27 25 35 37 38 45 51 51 51 49 50 36 36 32 32 33 33
28 28 28 28 25 24 15 14 12 15 16 15 15 18 20 14 17 15 14 14 16 13 11 14 14 12 16 23 19 14 27 30 35 36 45 50 51 55 43 38 42 41 40 37 38
28 28 29 28 28 23 17 10 10 13 15 14 15 15 19 15 14 13 13 14 10 12 11 16 19 20 20 26 28 25 26 30 33 33 37 40 38 33 28 27 30 33 34 34 35
30 30 28 30 28 28 22 15 14 14 15 15 14 13 19 16 13 13 15 13 10 12 11 13 17 23 29 31 32 31 29 35 35 41 45 38 31 25 25 27 26 30 32 33 33
33 31 29 29 28 25 25 20 16 15 12 14 13 12 18 16 14 14 14 13 11 12 12 13 12 17 26 33 32 24 13 16 13 12 23 28 23 25 24 27 29 32 33 33 31
33 34 31 30 31 28 23 24 18 16 13 12 12 10 14 17 14 15 13 16 14 14 17 15 13 18 16 12 12 25 25 27 22 21 25 27 24 25 26 31 31 31 29 28 29
34 33 33 30 29 30 24 21 22 17 16 12 12 9 10 23 18 16 16 15 16 17 19 17 15 18 19 18 17 26 25 28 24 13 23 18 20 20 29 28 17 22 28 28 29
35 33 34 32 29 29 27 22 20 17 14 13 11 10 10 11 21 17 18 17 17 21 20 20 24 23 20 23 28 28 28 26 23 22 28 27 24 29 32 23 23 27 26 28 32
36 33 32 32 31 29 28 24 21 18 13 11 10 9 9 12 18 23 18 19 18 18 22 24 25 26 29 30 30 28 31 31 35 34 30 33 35 37 29 18 25 26 30 34 36
35 34 32 33 31 30 23 23 21 18 12 9 9 6 10 12 13 16 21 20 20 23 22 26 31 31 31 31 31 35 37 35 36 40 40 37 36 30 20 25 32 31 33 33 34
34 33 31 32 31 28 22 20 17 18 13 8 13 12 11 11 10 13 26 26 21 22 21 23 28 29 31 31 30 29 33 32 32 39 46 39 42 41 34 38 36 34 34 34 33
34 32 30 31 31 28 23 18 16 16 16 13 11 6 3 6 8 10 14 15 30 27 21 25 29 31 31 31 31 31 30 31 34 35 32 34 47 44 31 32 33 33 33 34 34
34 31 31 29 30 28 24 18 16 16 13 16 14 11 9 7 10 11 7 7 8 15 27 31 28 32 36 33 32 32 29 28 31 31 28 29 33 30 29 31 35 35 35 35 35
35 29 30 30 28 27 23 18 17 18 17 13 13 18 15 11 9 11 12 10 8 11 11 17 31 34 34 34 33 34 32 33 31 24 25 26 27 31 33 30 34 36 38 38 40
34 31 28 30 29 26 23 20 20 21 20 19 20 22 21 16 14 16 21 14 18 16 14 11 14 32 36 38 37 33 37 39 37 35 33 27 26 30 35 37 40 42 42 42 44
35 32 30 31 29 27 22 23 24 21 17 22 20 18 20 20 17 21 25 23 23 22 22 19 15 18 26 30 34 36 36 34 33 34 34 34 32 35 36 41 45 47 48 48 51
34 34 33 31 29 29 27 24 25 23 21 20 19 18 18 19 21 23 24 28 24 21 23 24 22 17 17 25 32 32 32 35 37 37 40 40 37 30 35 39 43 43 44 46 46
35 33 35 33 30 31 29 25 25 24 21 18 19 20 19 20 21 22 25 27 25 25 26 28 26 20 19 22 28 32 31 33 38 38 38 39 36 28 37 41 46 46 49 51 52
33 35 34 33 31 30 30 28 27 21 20 17 17 18 18 21 22 22 25 27 24 23 23 22 22 20 23 26 28 31 31 33 35 36 34 33 33 27 31 34 40 42 45 49 48
31 32 29 32 30 29 28 30 27 30 24 19 17 17 15 18 21 21 24 24 24 26 25 24 22 25 24 25 31 29 31 28 32 31 29 21 29 25 29 30 36 42 46 43 44
29 26 25 30 31 30 28 29 32 31 28 24 20 20 18 21 20 21 24 24 25 24 26 25 24 26 26 26 29 32 29 30 33 29 28 37 29 35 36 34 34 33 34 37 38
23 28 31 31 30 32 31 35 37 34 32 28 25 23 23 20 21 23 22 23 25 25 25 26 26 27 23 26 29 29 21 29 35 39 36 37 38 37 37 37 36 36 37 38 36

GFSSW_500_spd_102.txt.gz
Wind_Speed
29 29 25 23 22 20 19 22 24 26 27 25 26 28 31 34 36 34 36 36 36 37 38 38 38 40 41 43 43 45 48 49 47 45 42 42 46 54 55 52 51 49 55 56 54
30 28 26 24 22 22 22 22 24 24 24 25 25 25 27 31 34 37 36 37 37 37 38 38 38 39 40 42 46 47 49 50 49 49 47 42 49 56 58 58 50 51 54 55 57
34 30 27 25 23 22 22 24 24 25 25 24 22 23 25 27 30 33 35 35 35 35 36 36 37 38 40 42 45 48 51 53 55 56 53 46 49 58 64 62 57 56 58 59 52
35 32 30 27 25 25 25 24 25 25 25 26 23 21 23 24 29 31 32 32 32 33 35 36 37 38 39 41 46 49 50 51 55 58 59 57 53 59 67 64 57 55 58 62 68
34 35 34 30 28 26 27 27 25 24 22 25 27 23 23 24 28 27 29 30 31 32 33 32 32 33 36 37 41 42 40 47 49 55 59 61 58 64 70 65 63 60 57 61 67
31 34 35 35 31 30 28 28 26 22 21 21 25 25 23 25 23 26 27 28 30 30 29 29 28 29 30 30 31 33 34 37 43 49 56 58 63 69 72 69 69 62 57 61 65
31 31 35 35 36 31 30 28 26 23 19 19 20 23 24 25 24 25 26 27 27 29 26 26 25 23 24 23 22 24 27 34 36 36 48 49 65 72 67 62 66 63 47 54 61
34 34 34 36 37 34 31 29 25 25 21 18 22 24 24 23 29 26 26 26 27 28 26 23 22 20 18 15 14 20 24 26 22 27 33 44 60 71 67 55 55 67 60 50 50
35 34 35 38 38 37 34 30 26 26 24 22 22 26 26 26 26 23 26 27 26 25 22 21 20 15 15 12 12 15 16 15 14 17 23 43 55 64 55 58 56 45 56 61 58
37 34 33 36 39 38 37 31 27 25 26 24 23 23 23 23 23 23 26 27 27 23 19 18 17 15 15 12 6 11 14 13 11 10 13 34 48 40 43 41 50 46 43 39 34
40 36 34 36 38 38 37 33 28 25 25 25 23 24 22 23 25 23 24 27 28 21 15 19 15 15 15 12 11 8 10 9 10 10 13 18 31 32 38 34 39 33 39 29 17
41 40 39 38 36 37 37 33 30 29 25 23 24 23 24 24 25 24 23 23 24 19 19 18 13 18 18 15 12 8 11 13 17 20 19 19 28 43 37 36 28 36 27 27 21
45 46 40 40 39 39 37 34 30 30 27 27 23 23 23 24 25 25 23 23 22 24 20 19 18 22 20 19 16 11 12 19 20 22 20 18 22 33 34 30 29 31 31 28 30
46 46 42 43 42 41 39 36 31 30 31 26 23 22 22 24 25 27 25 26 26 21 24 22 25 24 22 21 21 17 17 28 27 27 25 25 22 25 28 32 31 32 33 29 30
46 42 41 40 43 45 42 39 33 31 31 26 23 22 21 22 25 24 25 22 19 22 26 19 27 26 23 22 23 19 26 34 32 32 29 25 24 22 25 31 26 25 25 30 29
47 46 43 45 45 46 43 40 37 33 27 26 24 22 20 20 21 23 24 22 26 26 24 24 24 24 23 26 25 23 30 33 35 34 32 29 25 28 32 32 32 32 27 25 25
51 50 47 45 46 46 42 43 41 35 26 26 22 25 21 23 23 23 24 23 23 25 27 25 24 21 25 27 27 28 32 34 36 38 37 33 34 31 29 29 30 31 29 28 28
53 48 47 44 48 46 43 45 47 31 26 25 24 27 25 24 21 23 24 24 24 21 25 27 28 28 30 29 29 31 33 35 37 37 35 37 42 39 34 33 34 34 34 35 35
54 47 44 47 46 44 45 50 41 25 28 27 27 27 29 29 26 21 21 19 19 20 25 30 32 33 34 34 34 34 35 34 34 35 34 32 31 31 34 36 40 42 43 43 44
56 47 46 45 43 42 46 47 35 27 31 30 30 28 27 29 25 21 22 19 18 16 14 18 31 33 34 37 40 38 35 34 34 35 34 34 31 25 23 27 32 37 39 40 39
50 45 44 41 40 41 44 38 30 28 34 32 30 30 33 32 26 22 21 20 23 20 17 13 11 12 14 34 43 41 40 38 37 39 38 36 34 30 27 32 36 34 38 39 40
45 41 41 40 39 36 37 31 31 32 35 31 33 31 36 41 34 25 25 24 23 23 24 23 18 14 17 16 19 25 33 41 45 42 42 40 38 35 33 33 33 39 39 34 35
35 32 33 29 28 32 30 30 34 33 34 34 33 32 29 31 31 29 31 27 22 22 23 22 21 20 22 24 25 26 28 28 32 36 38 39 37 36 37 37 34 34 36 38 40
30 22 26 27 26 29 34 30 33 34 31 33 35 32 34 32 30 29 30 29 25 26 25 26 24 24 27 28 27 31 30 30 31 31 29 31 29 32 36 37 39 36 36 38 39
26 19 18 20 22 25 27 26 28 26 32 34 34 29 18 26 27 27 25 24 24 25 26 27 26 25 24 26 25 27 29 28 25 26 29 27 30 28 35 37 35 34 36 36 36
28 18 21 17 24 28 29 27 32 30 29 31 33 38 25 26 30 27 24 23 24 22 22 23 24 23 25 27 27 28 26 25 28 29 30 30 31 27 29 36 35 36 35 33 34
24 19 19 24 26 31 29 27 23 32 24 33 31 34 29 27 25 24 23 21 19 20 22 24 25 25 25 26 30 29 22 27 30 31 32 28 24 30 28 31 35 36 37 36 34

GFSSW_500_spd_105.txt.gz
Wind_Speed
32 31 29 26 24 23 20 20 19 18 19 25 29 30 29 30 31 33 37 35 36 39 39 38 40 40 39 39 39 39 41 41 39 37 35 36 41 45 47 51 53 48 53 48 48
30 32 31 30 27 25 24 23 22 23 22 21 25 28 29 29 29 33 34 37 37 37 38 38 38 39 39 40 41 41 43 42 39 39 39 37 41 47 49 51 54 59 48 48 54
30 30 30 30 30 27 24 25 25 24 23 23 21 25 28 27 28 30 33 35 39 37 37 37 37 38 39 40 41 42 43 44 45 45 45 42 43 45 52 54 53 61 58 50 49
31 32 31 31 31 31 29 27 26 26 23 22 23 22 25 26 27 26 28 31 36 38 38 38 37 38 38 40 42 43 44 46 47 49 50 49 49 49 51 53 55 61 63 50 53
33 34 33 32 32 32 33 31 27 26 25 22 22 22 24 26 28 24 26 28 31 34 36 37 37 38 39 39 42 43 43 48 50 52 55 57 53 53 54 57 60 62 63 58 51
34 33 34 32 33 32 34 34 32 27 25 24 21 21 22 28 27 25 25 27 29 33 34 36 37 38 37 37 40 42 43 44 47 48 52 56 57 55 60 61 65 65 66 66 57
38 38 39 35 34 34 36 35 33 30 26 25 23 22 22 24 24 27 26 26 29 32 34 34 33 33 32 35 36 36 35 36 38 41 44 49 53 54 62 68 71 72 71 66 67
40 41 42 40 38 34 35 37 37 33 28 24 24 25 25 23 27 28 25 27 28 30 31 31 31 31 31 29 30 30 29 26 33 36 29 38 43 44 53 72 76 73 72 70 67
43 43 43 43 41 39 38 38 39 35 32 26 24 24 29 27 30 29 28 29 29 27 26 28 29 30 25 25 25 23 17 15 17 22 21 25 28 28 46 66 72 75 76 62 60
45 44 43 44 42 42 41 41 38 36 33 32 26 26 27 28 29 28 29 29 29 27 26 25 29 26 23 22 21 19 12 10 11 18 19 24 28 21 39 56 73 72 50 60 57
52 51 48 45 45 45 43 42 42 39 38 34 29 26 25 29 29 29 29 30 28 25 22 24 27 22 25 23 24 18 14 8 10 15 14 19 25 17 25 42 62 44 46 47 47
56 54 52 49 46 45 45 44 43 43 39 41 32 28 28 30 30 30 30 29 25 22 24 23 21 25 29 23 22 17 12 10 11 16 17 13 18 11 19 25 32 40 38 35 29
55 52 48 46 46 45 45 41 42 44 45 35 38 27 31 29 30 29 29 27 25 26 23 21 24 31 27 25 22 17 16 13 11 16 19 16 18 16 24 26 23 42 33 25 33
58 54 51 46 44 42 46 42 43 45 49 42 36 31 31 28 29 30 28 28 28 25 26 24 28 30 27 26 23 19 18 18 18 19 20 21 16 16 27 29 18 24 34 32 29
61 58 55 51 47 46 50 46 48 48 48 42 35 29 25 25 26 27 28 30 27 26 29 22 28 30 31 24 25 19 23 22 22 24 26 24 19 16 17 22 24 23 20 18 18
64 61 56 51 47 52 53 50 52 48 50 39 33 27 23 24 26 28 29 30 29 28 29 28 30 32 26 28 25 23 24 25 26 27 30 28 20 14 17 15 24 25 23 23 25
67 63 55 50 47 53 53 51 52 53 37 31 28 28 24 25 25 26 27 28 29 28 26 25 29 26 27 28 26 25 25 29 30 30 30 29 25 22 19 19 21 29 29 30 31
70 61 53 51 50 51 52 51 52 51 33 25 22 25 25 26 26 26 27 27 30 28 26 27 28 27 26 26 24 25 26 30 32 30 30 33 34 29 24 24 26 30 33 36 35
67 56 51 51 50 49 47 51 48 43 27 26 27 30 30 26 26 26 24 25 27 25 25 25 28 29 30 28 26 27 30 29 32 32 32 33 35 32 32 32 35 36 36 36 36
61 47 48 46 40 42 44 45 43 36 28 30 33 31 33 31 28 27 25 23 26 26 26 24 28 29 31 32 32 31 30 31 33 33 32 32 30 27 25 25 26 29 35 39 41
46 44 41 37 32 30 35 34 31 28 28 34 35 29 29 35 32 29 26 21 23 22 21 18 21 29 32 34 32 35 35 35 34 35 34 31 31 27 24 22 25 25 26 28 29
42 37 33 28 26 21 20 25 25 25 30 35 33 36 30 32 34 36 32 24 23 22 23 23 23 21 20 19 22 32 39 40 40 38 37 36 35 34 30 28 29 30 31 31 31
41 35 31 24 20 18 15 18 24 30 33 30 32 35 38 34 28 33 35 27 27 25 28 23 32 23 21 23 21 20 17 19 35 41 42 43 40 37 35 36 36 36 36 35 32
42 36 28 20 13 17 17 17 23 28 32 33 30 32 32 32 30 34 31 30 26 22 29 26 27 27 22 24 22 23 21 26 26 25 25 25 26 29 31 33 34 36 38 37 34
42 36 24 19 17 20 16 14 15 22 27 30 33 35 29 27 27 27 26 25 23 29 31 34 26 21 21 18 20 24 25 27 28 27 25 21 20 24 27 29 34 36 37 35 35
35 29 22 20 22 23 17 18 18 18 17 22 33 34 34 31 27 26 28 26 29 30 28 26 24 19 21 22 23 25 26 25 23 24 23 23 22 24 28 31 32 34 36 36 36
23 21 19 22 23 25 22 20 23 18 22 24 28 30 31 31 22 29 26 27 28 23 23 23 22 23 25 25 26 27 22 26 26 26 26 25 22 26 27 29 32 34 34 35 37

GFSSW_500_spd_111.txt.gz
Wind_Speed
21 23 24 24 25 25 26 25 25 19 17 16 19 22 22 23 24 29 30 35 34 37 39 40 39 40 40 39 40 42 43 45 42 41 39 38 48 48 39 45 51 48 45 50 54
23 23 25 26 26 27 27 27 26 27 23 18 16 18 23 24 24 25 31 32 31 34 40 41 42 42 42 42 42 42 43 40 41 42 43 45 42 45 43 47 46 41 48 45 46
27 29 30 30 29 27 27 28 28 29 28 26 22 19 19 24 26 28 27 30 32 32 37 40 42 42 44 44 44 44 43 43 44 47 45 41 43 45 46 48 45 45 45 47 49
28 29 29 28 29 29 29 30 30 29 29 29 30 28 23 19 27 24 28 28 31 32 33 37 41 42 43 44 45 45 47 47 47 47 44 43 45 45 47 44 46 47 50 54 45
26 27 29 31 32 32 33 32 32 30 29 30 30 31 30 22 24 24 28 27 30 29 32 34 39 41 43 43 45 47 47 47 48 48 45 45 45 45 47 46 47 47 51 55 47
31 31 34 35 36 36 35 35 36 34 30 28 30 31 33 32 24 22 25 28 30 31 30 32 35 39 43 44 43 43 44 46 46 43 43 46 46 46 47 50 48 48 49 50 48
37 38 38 39 40 40 41 42 39 37 34 30 29 30 31 35 25 24 26 29 30 33 32 31 33 36 38 41 41 41 42 39 43 42 44 45 45 46 48 50 49 47 50 51 50
39 40 41 43 43 43 42 43 40 39 34 31 28 28 32 32 29 24 27 28 30 32 33 33 32 33 36 37 39 37 39 40 39 41 44 46 45 41 46 47 51 51 51 54 54
43 45 46 48 48 48 48 48 43 40 35 30 31 31 33 32 31 29 26 29 31 33 32 32 32 32 34 36 33 37 35 33 26 42 42 43 39 39 41 45 48 52 53 53 57
48 48 49 50 52 50 51 52 49 47 39 34 35 34 34 35 34 31 31 31 32 35 37 34 32 32 34 35 34 31 33 26 24 23 39 35 33 33 35 41 45 50 52 52 56
52 52 52 52 52 52 51 54 51 48 45 38 35 35 39 38 39 37 35 32 34 35 37 35 36 37 31 30 27 20 21 25 26 25 35 31 30 28 28 28 35 46 50 52 56
57 56 55 55 53 50 49 51 49 50 49 37 38 36 44 45 45 43 40 34 33 30 32 38 39 28 30 34 33 37 30 26 27 27 32 29 27 23 23 23 23 32 39 42 48
60 60 58 55 54 51 51 47 48 47 52 44 41 46 48 50 47 48 42 33 34 32 34 34 26 30 36 36 36 39 37 30 26 20 32 26 23 17 20 24 14 13 12 24 27
66 65 61 55 56 52 54 48 48 49 48 44 48 47 53 54 53 48 38 36 38 34 33 33 31 36 38 37 35 36 33 32 33 31 19 11 16 15 16 18 14 7 5 10 12
67 66 62 58 53 53 53 48 47 46 51 42 51 49 50 48 41 43 42 37 39 34 35 34 36 36 39 37 36 32 32 33 33 33 23 17 14 10 21 17 19 7 7 12 14
67 67 65 60 57 55 55 51 48 48 54 43 38 42 46 40 29 36 44 39 34 33 36 34 34 33 35 35 34 30 32 35 34 26 24 18 18 11 17 13 13 15 12 12 15
71 70 68 64 59 55 53 51 49 50 39 37 30 25 30 34 32 30 35 39 41 41 42 38 35 34 36 35 34 34 35 27 24 25 24 18 20 22 24 14 13 13 19 19 19
73 68 67 64 59 55 49 50 50 46 38 27 23 23 30 23 31 28 31 32 34 36 38 37 39 37 40 38 32 32 32 27 23 19 19 20 22 20 22 29 21 17 13 17 19
69 69 66 62 58 55 50 50 45 36 22 20 24 31 34 32 27 37 39 33 30 32 36 29 32 28 36 35 32 27 32 28 28 28 23 26 25 32 31 22 24 21 18 18 23
69 66 63 58 53 49 48 45 35 26 21 25 29 30 26 27 39 42 39 34 30 31 31 28 26 25 22 29 34 33 21 27 30 27 27 28 19 20 22 28 32 29 25 24 25
69 65 61 49 46 44 40 31 21 19 22 28 33 32 26 28 30 40 41 35 33 35 36 34 29 31 26 34 32 34 31 26 27 32 26 32 18 27 19 25 29 22 34 31 32
65 56 54 44 40 29 21 15 14 19 28 29 33 39 29 34 33 26 40 35 31 32 37 40 25 28 26 26 29 28 30 29 27 30 41 29 31 32 35 12 25 21 31 28 29
58 52 45 38 22 18 18 16 21 23 21 26 27 29 28 33 27 27 26 42 33 37 26 33 29 25 34 33 30 37 30 28 31 38 33 33 31 39 30 25 28 25 31 32 30
57 47 31 21 18 13 18 21 16 25 18 20 24 26 22 36 33 22 25 36 37 36 38 34 35 35 31 23 24 29 25 16 21 32 26 31 35 37 31 34 38 29 31 40 38
49 32 18 17 17 21 19 18 23 21 17 15 12 21 23 23 25 19 23 31 45 38 38 37 35 25 33 30 25 24 27 30 30 28 22 20 16 18 15 17 29 32 31 32 31
39 30 20 16 13 15 17 18 15 20 13 6 14 22 21 19 23 23 16 24 42 37 38 40 38 35 27 29 29 28 26 26 29 22 22 22 23 26 28 29 32 29 28 29 29
24 18 14 8 6 7 12 13 22 14 13 5 11 21 18 19 22 23 21 20 40 43 43 38 36 32 30 30 27 33 32 28 25 28 26 21 19 24 33 39 32 31 28 29 29

GFSSW_500_spd_114.txt.gz
Wind_Speed
20 21 21 21 20 20 21 21 20 20 21 20 18 14 12 17 19 21 18 28 31 35 37 39 39 39 39 39 40 41 44 48 46 44 42 39 29 22 37 50 45 53 49 49 53
23 21 21 21 21 22 23 24 24 21 20 19 20 19 19 14 15 21 26 25 24 31 36 39 41 43 43 42 42 42 44 41 39 39 37 34 36 28 43 55 41 45 51 47 56
24 24 24 24 25 25 25 27 27 26 25 23 21 21 21 20 20 17 22 25 27 28 32 38 39 43 45 46 45 45 41 41 42 40 41 38 43 43 53 52 42 41 43 44 48
25 25 27 28 29 30 30 30 30 31 29 28 27 24 23 21 27 17 23 27 29 30 28 35 37 39 43 45 46 47 45 44 44 45 46 50 48 47 48 46 40 44 46 44 51
30 31 31 32 33 34 34 35 35 35 36 35 31 26 24 22 28 21 23 24 27 29 30 32 36 37 39 42 45 48 48 49 49 49 49 49 44 44 45 46 44 44 47 46 49
32 31 32 35 36 37 37 38 38 39 40 38 35 34 29 26 26 27 27 28 28 29 31 32 32 34 38 40 45 47 47 50 49 50 51 50 46 45 45 48 48 46 47 47 48
37 35 34 35 36 37 38 40 40 39 42 43 40 38 36 30 27 31 30 31 28 29 30 33 33 34 36 38 43 46 49 48 52 47 47 50 47 46 49 50 50 48 46 47 47
45 45 44 46 49 48 46 47 47 45 43 43 42 44 35 34 33 37 35 33 29 31 30 34 36 36 33 35 38 44 48 49 44 45 46 46 46 47 48 50 50 50 49 47 49
51 53 54 51 49 51 48 49 48 47 47 45 44 41 34 34 32 38 38 35 33 33 33 34 37 36 34 36 37 41 41 43 41 41 41 45 46 45 43 46 48 50 49 50 47
55 54 53 53 53 54 52 52 52 52 49 47 44 42 40 36 36 37 42 38 37 37 37 37 35 35 35 38 38 37 36 37 34 29 32 43 46 39 40 41 45 47 48 48 49
61 57 54 55 56 56 53 53 56 53 52 49 46 42 39 37 35 40 44 45 43 42 40 37 37 39 36 33 30 29 28 30 29 26 29 32 36 32 33 35 38 44 46 49 50
64 62 61 60 60 60 57 56 53 54 58 52 41 45 39 45 43 43 48 49 46 41 39 41 39 36 31 29 31 30 29 22 23 18 31 23 29 27 26 29 31 34 38 40 44
65 67 66 63 62 62 58 60 54 52 56 48 46 46 44 52 51 52 50 46 46 41 39 40 36 29 32 36 36 34 36 25 21 31 28 26 32 22 19 26 31 30 33 34 38
68 69 69 67 65 65 61 59 53 56 57 48 48 47 51 52 53 51 53 46 45 42 38 39 35 32 36 38 35 33 35 28 28 26 22 20 17 16 13 20 26 29 29 28 28
73 74 75 76 69 57 54 52 52 54 58 42 40 41 38 41 31 32 35 48 43 40 40 38 38 37 39 38 32 29 25 33 30 25 28 28 24 14 16 19 25 22 21 21 21
78 78 75 69 60 58 56 56 56 54 57 44 25 28 33 36 33 28 30 39 33 39 38 35 33 36 32 31 30 28 28 22 24 24 34 32 26 15 20 17 17 22 17 17 16
80 74 67 67 61 61 58 54 51 50 42 36 15 15 24 31 23 25 33 35 35 46 43 37 39 34 33 30 32 32 30 27 27 30 31 22 23 19 28 27 15 19 23 15 20
77 72 66 64 61 55 50 46 46 43 40 32 25 28 30 23 30 28 37 43 29 40 38 38 38 36 36 30 31 32 35 31 26 24 22 18 23 19 28 28 27 26 19 21 23
75 67 68 65 57 49 43 44 40 36 28 24 22 39 29 31 35 36 44 38 36 34 41 39 36 35 32 36 33 30 35 29 27 27 27 22 23 31 27 37 28 27 26 28 20
73 69 66 59 47 39 40 36 32 23 18 22 29 28 31 23 35 27 33 46 45 24 32 38 38 35 38 29 37 35 23 28 35 25 23 26 21 27 24 26 31 34 25 29 31
74 67 60 51 40 28 29 20 14 12 16 16 17 25 30 28 36 34 35 44 40 39 30 38 35 36 37 42 34 42 38 31 29 36 28 28 29 42 35 35 24 26 32 35 34
66 60 56 49 28 20 15 16 24 20 19 27 24 27 35 35 34 25 32 30 20 48 41 32 38 30 34 27 24 29 38 33 33 29 34 29 36 28 35 23 26 30 27 29 22
63 60 48 19 18 16 18 16 18 17 16 26 20 27 20 37 29 17 27 27 45 33 43 38 46 34 38 37 31 36 29 35 24 29 33 41 39 22 23 27 28 36 31 28 25
65 54 27 9 16 24 24 11 17 17 15 17 21 22 32 33 30 19 25 24 41 39 41 42 44 43 38 35 29 32 34 37 30 33 33 37 44 41 24 31 28 34 25 24 19
56 35 22 13 24 25 22 15 18 17 20 16 19 18 28 30 20 20 19 23 42 41 38 35 41 37 25 38 38 30 33 38 39 43 32 24 39 36 46 42 38 43 40 32 32
46 32 15 13 11 14 15 17 18 16 11 18 4 16 23 21 18 25 26 22 39 32 34 31 39 33 21 23 37 26 31 32 34 46 17 15 13 25 32 22 46 42 37 37 38
35 21 15 5 5 7 11 11 12 13 6 6 9 5 19 23 19 19 23 19 31 46 31 33 38 37 39 37 23 30 28 27 18 17 23 3 21 22 27 15 21 21 32 31 31

GFSSW_500_spd_117.txt.gz
Wind_Speed
21 19 19 19 19 20 21 21 22 21 19 18 16 15 13 13 11 12 16 21 21 23 31 37 39 41 41 39 40 42 46 50 45 43 41 37 36 35 42 41 49 48 45 45 48
24 24 23 23 23 24 25 25 26 28 26 23 24 23 19 16 14 14 18 20 21 24 26 32 39 43 45 44 44 44 44 42 38 40 40 41 42 34 25 38 36 40 37 50 55
27 28 29 29 27 26 27 28 30 29 29 31 30 28 28 24 18 16 22 22 24 23 28 31 34 40 46 47 48 46 37 38 39 40 38 38 42 46 37 37 41 45 46 45 46
28 29 30 29 29 30 30 31 33 32 34 34 32 32 32 30 24 24 25 24 27 27 30 32 33 36 41 46 46 49 44 43 41 43 43 42 43 49 50 49 52 52 54 43 47
29 31 31 31 31 32 34 37 36 34 33 34 35 36 35 32 23 35 21 31 31 31 30 33 36 36 38 42 43 47 48 48 47 45 44 44 48 48 48 53 55 52 37 40 42
37 37 36 37 39 40 41 42 42 41 41 42 41 38 35 31 33 36 32 31 33 34 36 36 32 33 37 42 44 43 46 47 51 49 47 49 49 48 43 44 48 45 40 44 42
33 35 37 40 44 42 41 42 43 43 42 42 42 43 41 27 40 38 31 35 34 38 37 36 35 39 37 39 41 42 46 48 50 51 51 49 54 47 44 43 46 46 43 46 43
45 42 43 47 47 45 45 45 46 44 45 46 45 47 45 35 45 41 39 38 42 41 39 38 38 39 42 41 40 44 47 49 47 51 50 53 49 48 46 47 47 47 45 45 44
46 48 48 47 47 48 49 51 53 52 52 52 52 51 47 41 44 47 44 41 43 42 39 41 43 42 43 43 41 42 45 44 44 43 46 46 45 44 45 48 48 49 49 48 46
48 48 49 52 55 57 56 56 59 59 59 57 55 53 48 47 45 47 48 47 47 46 43 44 46 45 43 44 44 42 38 37 37 34 38 38 42 43 43 45 48 49 49 48 47
52 54 57 60 62 64 63 61 63 64 65 63 62 56 48 48 46 49 50 51 52 52 50 46 47 46 42 40 36 35 35 34 31 26 31 37 40 40 43 43 45 45 47 46 45
58 60 63 65 66 69 70 69 73 70 70 66 61 57 46 48 51 52 55 55 54 53 48 49 51 42 37 39 37 34 34 35 27 15 21 26 34 30 33 36 39 42 46 47 44
67 69 71 73 73 76 66 70 66 62 66 62 55 50 46 53 54 60 55 55 55 51 48 46 39 37 36 38 40 39 38 33 32 16 16 27 28 33 25 20 26 32 39 42 39
74 78 80 81 80 69 69 64 59 60 64 55 48 46 47 52 52 44 51 53 55 52 44 39 37 39 37 38 40 40 36 29 29 27 24 32 38 32 11 11 20 26 28 29 31
80 84 86 87 84 65 64 59 59 58 57 41 33 37 36 37 35 33 22 37 47 48 45 45 38 40 37 37 38 37 31 32 35 27 31 40 38 24 21 15 21 26 26 27 30
86 89 86 81 65 66 59 56 55 53 52 33 21 19 17 23 23 17 16 27 27 30 38 36 35 37 33 36 35 30 29 33 38 30 36 36 35 25 18 15 13 18 19 23 29
90 90 76 74 65 60 53 46 46 48 39 25 19 27 27 28 15 23 24 32 34 33 34 38 40 35 34 35 30 32 34 30 34 45 46 41 39 35 19 13 20 29 25 19 23
92 86 73 66 57 53 47 41 42 34 31 28 24 37 37 26 24 32 30 36 45 22 28 34 40 38 37 39 35 38 39 42 41 36 31 31 34 22 28 24 23 21 13 20 19
89 68 63 58 55 45 36 29 31 24 25 22 25 41 43 28 27 27 34 46 34 29 29 34 35 34 38 40 37 37 44 38 30 21 20 19 13 17 18 22 24 27 20 21 24
77 62 60 56 46 38 19 18 24 21 17 12 18 24 46 37 22 23 19 37 38 47 30 35 31 35 34 40 40 42 33 40 38 35 31 26 20 29 27 34 31 26 24 26 25
66 62 61 52 26 21 16 21 14 14 26 23 21 16 32 45 28 29 18 20 35 33 39 36 39 39 44 43 39 42 39 35 34 39 32 21 34 30 36 36 34 32 31 28 34
64 63 58 42 13 29 19 23 26 10 14 16 16 17 20 36 47 38 22 24 19 40 41 32 45 40 38 46 45 44 36 36 36 40 32 26 31 36 39 37 41 35 28 33 44
60 58 46 28 14 13 25 19 17 13 3 6 16 13 24 13 29 31 31 23 16 36 39 42 45 41 44 40 42 46 46 40 36 37 39 33 33 30 34 39 32 28 26 31 34
62 54 37 24 22 27 11 7 12 19 23 9 8 11 21 21 29 22 24 14 18 23 41 42 46 42 34 41 48 38 38 43 38 38 37 38 31 36 33 29 34 33 34 42 35
56 45 34 16 20 23 10 14 14 17 15 14 10 11 16 17 27 23 24 19 14 20 41 44 38 38 34 36 38 35 34 45 39 34 29 37 35 38 37 40 26 25 30 32 36
47 36 19 17 10 10 13 16 17 14 10 7 10 6 7 14 22 24 26 23 14 22 30 44 34 30 29 40 36 31 35 37 35 36 32 33 32 33 34 37 42 44 41 42 47
40 30 21 15 7 3 7 7 5 6 10 0 6 7 9 17 21 16 17 18 21 31 39 37 33 31 34 41 36 32 42 40 35 38 34 31 37 40 36 34 32 28 25 29 27

GFSSW_500_spd_123.txt.gz
Wind_Speed
18 18 18 18 18 20 20 20 21 23 23 22 22 20 19 20 18 18 23 25 22 20 22 24 27 31 35 39 39 39 42 40 39 40 36 36 45 51 53 54 58 57 61 58 53
21 21 21 23 25 26 26 25 23 23 24 24 23 23 22 21 22 25 27 30 26 24 27 28 29 28 28 35 38 43 42 35 31 33 35 35 43 49 55 56 57 61 62 58 57
27 26 27 30 31 29 29 30 31 31 31 32 32 32 29 29 27 30 32 30 32 33 29 33 34 31 31 34 33 35 29 38 35 36 34 34 45 45 54 58 57 62 63 61 61
33 34 33 36 35 30 31 34 35 35 36 38 39 38 37 35 33 35 34 34 34 37 38 38 40 34 32 36 36 34 35 38 39 41 40 35 41 47 53 54 59 57 63 61 62
31 34 37 38 37 37 41 39 41 43 44 43 43 44 41 37 30 43 38 38 40 42 45 45 43 42 39 39 38 36 33 38 39 42 45 41 40 47 47 52 55 56 58 64 64
31 33 35 36 38 40 43 44 47 48 48 46 45 44 44 39 35 46 45 43 44 45 47 50 51 49 43 42 42 40 40 39 40 43 47 48 44 46 41 50 53 56 55 58 59
35 36 37 39 40 41 44 44 47 48 49 51 51 51 51 37 40 50 50 52 48 49 48 51 54 55 52 48 46 45 44 42 42 44 47 51 52 47 41 49 51 54 55 56 56
33 35 36 39 41 44 45 47 51 54 56 57 58 60 59 45 48 52 58 54 51 52 53 53 57 60 58 55 51 49 48 43 44 47 47 50 42 47 46 49 51 51 52 53 54
40 42 43 46 49 53 53 55 58 59 62 64 66 66 65 61 57 57 56 55 57 57 59 60 60 61 62 59 57 54 49 45 47 47 47 47 41 42 48 50 50 48 49 50 49
43 47 51 54 59 62 64 66 69 70 72 75 76 74 70 67 63 59 63 61 59 60 62 66 66 61 62 64 57 56 50 51 49 48 47 42 41 41 43 49 49 49 45 47 51
50 55 58 62 65 69 70 76 78 78 78 77 76 79 74 62 67 66 66 63 59 61 67 68 68 63 59 59 56 56 53 51 51 44 45 41 39 40 38 42 44 48 48 50 52
62 65 69 71 74 77 79 84 83 86 84 79 68 69 70 67 72 61 65 66 66 65 65 70 69 62 61 60 58 55 53 50 47 44 43 42 43 42 38 42 48 47 48 49 52
71 74 77 76 79 83 81 84 80 72 73 61 50 57 57 62 63 65 69 70 71 68 68 68 62 56 58 57 57 55 51 49 46 38 39 44 45 42 41 44 46 47 46 49 49
77 81 83 82 86 82 75 70 66 60 60 50 43 40 43 46 51 54 58 63 66 67 61 61 57 59 56 54 54 52 47 45 39 33 40 42 44 40 38 41 44 43 40 43 46
82 84 86 88 88 82 69 61 59 55 52 35 33 32 33 34 32 36 42 52 54 56 56 56 57 57 53 54 48 45 38 35 32 34 37 40 44 36 38 38 35 36 38 40 42
83 85 87 87 82 71 59 56 53 48 46 34 30 33 32 33 29 33 37 36 38 41 45 41 44 48 39 41 41 41 35 36 35 37 42 40 44 37 39 34 26 28 31 35 29
85 89 91 86 73 66 55 49 44 37 29 25 22 23 34 38 35 34 21 31 34 37 38 37 42 43 45 46 42 46 43 42 41 46 48 43 44 37 33 33 31 26 23 20 24
89 91 88 78 65 56 48 40 28 21 16 12 11 17 28 30 35 31 28 22 32 37 36 38 41 46 44 46 47 51 47 51 50 50 47 44 45 38 36 30 30 28 26 24 27
89 84 77 68 55 50 41 29 20 17 11 15 4 14 12 22 34 33 33 27 27 34 37 34 38 42 45 43 46 47 46 43 44 44 46 48 48 38 35 28 31 29 30 31 30
86 76 68 58 52 44 32 15 17 17 18 13 12 17 22 18 23 31 19 12 17 45 39 32 35 42 48 43 46 43 42 50 46 43 40 45 44 44 31 31 34 35 35 31 24
74 68 60 55 48 39 31 17 7 23 11 16 12 12 11 11 17 25 20 10 13 10 40 32 36 37 47 50 53 49 50 51 48 50 43 43 43 42 33 35 37 38 32 33 32
67 59 57 51 39 36 27 10 10 15 16 14 6 16 13 8 11 19 26 22 17 10 30 33 31 23 38 47 51 50 51 50 50 47 41 38 39 36 36 39 38 38 35 35 37
61 54 52 46 35 27 18 6 2 8 16 17 14 17 14 12 6 4 32 27 29 19 14 39 40 31 37 41 49 52 48 48 47 42 42 37 38 37 35 35 37 38 33 28 26
59 53 44 37 33 26 16 2 9 4 10 12 11 12 9 4 5 7 22 29 26 21 4 27 42 36 36 41 43 51 50 48 43 41 38 37 41 37 31 29 33 32 27 25 26
57 52 40 33 23 16 16 9 3 4 5 5 6 10 11 4 2 14 17 34 27 22 15 27 30 31 36 41 39 47 52 50 45 42 40 38 39 36 34 31 30 28 30 29 28
52 47 35 29 18 11 14 12 3 7 2 2 3 7 10 4 5 11 16 20 21 15 11 29 28 33 40 41 41 47 51 47 42 37 34 40 37 36 33 33 35 26 25 17 17
45 45 29 22 14 12 16 8 5 4 0 4 4 7 9 8 10 10 13 18 15 14 13 24 28 39 40 38 40 45 49 47 41 38 35 38 40 40 34 28 23 18 14 13 14